TimeEDT,TemperatureF,Dew PointF,Humidity,Sea Level PressureIn,VisibilityMPH,Wind Direction,Wind SpeedMPH,Gust SpeedMPH,PrecipitationIn,Events,Conditions,WindDirDegrees,DateUTC
12:15 AM,53.6,51.8,94,30.13,3.0,East,5.8,-,N/A,,Overcast,100,2013-04-30 04:15:00
12:36 AM,53.6,51.8,94,30.13,3.0,East,5.8,-,N/A,,Overcast,100,2013-04-30 04:36:00
12:54 AM,53.6,51.8,94,30.13,2.5,East,3.5,-,N/A,,Overcast,80,2013-04-30 04:54:00
1:15 AM,53.6,51.8,94,30.13,4.0,ENE,5.8,-,N/A,,Overcast,70,2013-04-30 05:15:00
1:36 AM,53.6,51.8,94,30.13,4.0,East,5.8,-,N/A,,Overcast,80,2013-04-30 05:36:00
1:54 AM,53.6,51.8,94,30.13,3.0,ENE,3.5,-,N/A,,Overcast,70,2013-04-30 05:54:00
2:15 AM,53.6,51.8,94,30.13,2.5,ENE,3.5,-,N/A,,Overcast,70,2013-04-30 06:15:00
2:36 AM,53.6,51.8,94,30.12,3.0,ENE,4.6,-,N/A,,Overcast,60,2013-04-30 06:36:00
2:57 AM,53.6,51.8,94,30.12,3.0,ENE,4.6,-,N/A,,Overcast,70,2013-04-30 06:57:00
3:15 AM,53.6,51.8,94,30.12,3.0,ENE,4.6,-,N/A,,Overcast,70,2013-04-30 07:15:00
3:36 AM,53.6,51.8,94,30.12,3.0,ENE,5.8,-,N/A,,Overcast,70,2013-04-30 07:36:00
3:57 AM,53.6,51.8,94,30.12,2.5,ENE,5.8,-,N/A,,Overcast,70,2013-04-30 07:57:00
4:15 AM,53.6,51.8,94,30.13,3.0,East,4.6,-,N/A,,Overcast,80,2013-04-30 08:15:00
4:36 AM,53.6,51.8,94,30.13,3.0,Calm,Calm,-,N/A,,Overcast,0,2013-04-30 08:36:00
4:57 AM,53.6,51.8,94,30.13,2.5,East,4.6,-,N/A,,Overcast,80,2013-04-30 08:57:00
5:15 AM,53.6,51.8,94,30.14,2.5,ENE,3.5,-,N/A,,Overcast,60,2013-04-30 09:15:00
5:36 AM,53.6,51.8,94,30.14,4.0,ENE,4.6,-,N/A,,Overcast,60,2013-04-30 09:36:00
5:57 AM,53.6,51.8,94,30.15,3.0,ENE,5.8,-,N/A,,Overcast,70,2013-04-30 09:57:00
6:15 AM,53.6,51.8,94,30.16,4.0,ENE,4.6,-,N/A,,Overcast,60,2013-04-30 10:15:00
6:36 AM,53.6,51.8,94,30.17,2.0,East,5.8,-,N/A,,Overcast,80,2013-04-30 10:36:00
6:57 AM,53.6,51.8,94,30.18,1.8,Calm,Calm,-,N/A,,Overcast,0,2013-04-30 10:57:00
7:15 AM,53.6,51.8,94,30.19,1.8,ENE,4.6,-,N/A,,Overcast,70,2013-04-30 11:15:00
7:36 AM,53.6,51.8,94,30.19,2.5,ENE,4.6,-,N/A,,Overcast,70,2013-04-30 11:36:00
7:57 AM,53.6,53.6,100,30.19,1.8,ENE,5.8,-,N/A,,Overcast,60,2013-04-30 11:57:00
8:15 AM,53.6,51.8,94,30.20,2.0,ENE,6.9,-,N/A,,Overcast,70,2013-04-30 12:15:00
8:36 AM,53.6,51.8,94,30.21,2.5,ENE,5.8,-,N/A,,Overcast,70,2013-04-30 12:36:00
8:57 AM,53.6,51.8,94,30.21,3.0,East,5.8,16.1,N/A,,Overcast,80,2013-04-30 12:57:00
9:15 AM,53.6,51.8,94,30.22,2.5,ENE,5.8,-,N/A,,Overcast,70,2013-04-30 13:15:00
9:36 AM,53.6,51.8,94,30.22,2.5,ENE,5.8,-,N/A,,Overcast,70,2013-04-30 13:36:00
9:57 AM,53.6,51.8,94,30.23,1.5,East,8.1,-,N/A,,Overcast,80,2013-04-30 13:57:00
10:15 AM,53.6,51.8,94,30.23,1.8,East,9.2,-,N/A,,Overcast,90,2013-04-30 14:15:00
10:36 AM,55.4,53.6,94,30.23,3.0,ENE,5.8,-,N/A,,Overcast,60,2013-04-30 14:36:00
10:54 AM,55.4,53.6,94,30.23,1.8,East,6.9,-,N/A,,Overcast,80,2013-04-30 14:54:00
11:18 AM,55.4,53.6,94,30.23,2.5,ENE,6.9,-,N/A,,Overcast,70,2013-04-30 15:18:00
11:36 AM,55.4,53.6,94,30.23,5.0,East,6.9,-,N/A,,Overcast,90,2013-04-30 15:36:00
11:57 AM,55.4,53.6,94,30.23,3.0,East,8.1,-,N/A,,Overcast,80,2013-04-30 15:57:00
12:18 PM,55.4,53.6,94,30.23,3.0,ENE,8.1,-,N/A,,Overcast,70,2013-04-30 16:18:00
12:36 PM,57.2,53.6,88,30.23,10.0,East,10.4,-,N/A,,Overcast,90,2013-04-30 16:36:00
12:57 PM,59.0,53.6,82,30.23,10.0,East,13.8,-,N/A,,Overcast,100,2013-04-30 16:57:00
1:18 PM,59.0,53.6,82,30.23,10.0,East,9.2,-,N/A,,Overcast,90,2013-04-30 17:18:00
1:57 PM,57.2,53.6,88,30.24,3.0,East,6.9,-,N/A,,Overcast,90,2013-04-30 17:57:00
2:18 PM,57.2,53.6,88,30.24,10.0,East,10.4,-,N/A,,Overcast,80,2013-04-30 18:18:00
2:57 PM,57.2,53.6,88,30.24,3.0,East,10.4,16.1,N/A,,Overcast,80,2013-04-30 18:57:00
3:18 PM,57.2,53.6,88,30.24,5.0,East,5.8,-,N/A,,Overcast,80,2013-04-30 19:18:00
3:36 PM,57.2,53.6,88,30.24,7.0,NE,4.6,-,N/A,,Overcast,50,2013-04-30 19:36:00
3:57 PM,59.0,53.6,82,30.25,10.0,East,3.5,-,N/A,,Overcast,90,2013-04-30 19:57:00
4:36 PM,59.0,53.6,82,30.25,3.0,East,6.9,-,N/A,,Overcast,90,2013-04-30 20:36:00
4:57 PM,59.0,53.6,82,30.26,10.0,East,10.4,-,N/A,,Overcast,100,2013-04-30 20:57:00
5:18 PM,59.0,51.8,77,30.26,10.0,East,5.8,-,N/A,,Overcast,100,2013-04-30 21:18:00
5:36 PM,59.0,51.8,77,30.26,10.0,East,8.1,-,N/A,,Overcast,100,2013-04-30 21:36:00
5:57 PM,59.0,51.8,77,30.26,10.0,East,6.9,-,N/A,,Overcast,100,2013-04-30 21:57:00
6:18 PM,59.0,51.8,77,30.26,10.0,East,5.8,-,N/A,,Overcast,100,2013-04-30 22:18:00
6:36 PM,59.0,51.8,77,30.26,10.0,East,4.6,-,N/A,,Overcast,100,2013-04-30 22:36:00
6:57 PM,57.2,51.8,82,30.27,10.0,SE,4.6,-,N/A,,Overcast,130,2013-04-30 22:57:00
7:18 PM,57.2,51.8,82,30.27,10.0,SE,3.5,-,N/A,,Overcast,130,2013-04-30 23:18:00
7:36 PM,55.4,51.8,88,30.28,10.0,Calm,Calm,-,N/A,,Overcast,0,2013-04-30 23:36:00
7:57 PM,55.4,53.6,94,30.27,10.0,Calm,Calm,-,N/A,,Overcast,0,2013-04-30 23:57:00
8:18 PM,55.4,51.8,88,30.27,10.0,Calm,Calm,-,N/A,,Overcast,0,2013-05-01 00:18:00
8:39 PM,53.6,51.8,94,30.28,10.0,Calm,Calm,-,N/A,,Overcast,0,2013-05-01 00:39:00
8:57 PM,51.8,50.0,94,30.29,10.0,Calm,Calm,-,N/A,,Mostly Cloudy,0,2013-05-01 00:57:00
9:18 PM,51.8,50.0,94,30.29,7.0,Calm,Calm,-,N/A,,Mostly Cloudy,0,2013-05-01 01:18:00
9:39 PM,50.0,50.0,100,30.30,5.0,Calm,Calm,-,N/A,,Mostly Cloudy,0,2013-05-01 01:39:00
9:57 PM,50.0,48.2,94,30.30,3.0,Calm,Calm,-,N/A,,Scattered Clouds,0,2013-05-01 01:57:00
10:18 PM,48.2,46.4,93,30.30,1.0,Calm,Calm,-,N/A,,Unknown,0,2013-05-01 02:18:00
10:39 PM,46.4,46.4,100,30.31,0.8,Calm,Calm,-,N/A,,Unknown,0,2013-05-01 02:39:00
10:57 PM,46.4,46.4,100,30.31,4.0,Calm,Calm,-,N/A,,Mostly Cloudy,0,2013-05-01 02:57:00
11:18 PM,46.4,44.6,93,30.31,1.0,Calm,Calm,-,N/A,,Mostly Cloudy,0,2013-05-01 03:18:00
11:39 PM,46.4,44.6,93,30.31,2.0,Calm,Calm,-,N/A,,Clear,0,2013-05-01 03:39:00
11:57 PM,44.6,42.8,93,30.31,1.0,Calm,Calm,-,N/A,,Unknown,0,2013-05-01 03:57:00